#datetime,building,power
2024-02-08T00:00:00,axn,32.03
2024-02-08T00:01:00,axn,31.97
2024-02-08T00:02:00,axn,33.54
2024-02-08T00:03:00,axn,33.21
2024-02-08T00:04:00,axn,33.71
2024-02-08T00:05:00,axn,34.64
2024-02-08T00:06:00,axn,33.33
2024-02-08T00:07:00,axn,32.55
2024-02-08T00:08:00,axn,32.98
2024-02-08T00:09:00,axn,32.33
2024-02-08T00:10:00,axn,32.42
2024-02-08T00:11:00,axn,31.91
2024-02-08T00:12:00,axn,32.23
2024-02-08T00:13:00,axn,32.02
2024-02-08T00:14:00,axn,31.95
2024-02-08T00:15:00,axn,31.91
2024-02-08T00:16:00,axn,31.87
2024-02-08T00:17:00,axn,32.17
2024-02-08T00:18:00,axn,32.32
2024-02-08T00:19:00,axn,31.66
2024-02-08T00:20:00,axn,32.28
2024-02-08T00:21:00,axn,32.33
2024-02-08T00:22:00,axn,32.28
2024-02-08T00:23:00,axn,31.66
2024-02-08T00:24:00,axn,31.70
2024-02-08T00:25:00,axn,32.07
2024-02-08T00:26:00,axn,31.95
2024-02-08T00:27:00,axn,31.97
2024-02-08T00:28:00,axn,32.34
2024-02-08T00:29:00,axn,31.77
2024-02-08T00:30:00,axn,32.09
2024-02-08T00:31:00,axn,31.82
2024-02-08T00:32:00,axn,31.89
2024-02-08T00:33:00,axn,31.91
2024-02-08T00:34:00,axn,33.30
2024-02-08T00:35:00,axn,32.59
2024-02-08T00:36:00,axn,32.62
2024-02-08T00:37:00,axn,32.67
2024-02-08T00:38:00,axn,32.69
2024-02-08T00:39:00,axn,32.75
2024-02-08T00:40:00,axn,32.70
2024-02-08T00:41:00,axn,32.64
2024-02-08T00:42:00,axn,32.74
2024-02-08T00:43:00,axn,33.16
2024-02-08T00:44:00,axn,48.98
2024-02-08T00:45:00,axn,47.95
2024-02-08T00:46:00,axn,47.89
2024-02-08T00:47:00,axn,47.89
2024-02-08T00:48:00,axn,47.80
2024-02-08T00:49:00,axn,47.80
2024-02-08T00:50:00,axn,33.32
2024-02-08T00:51:00,axn,34.07
2024-02-08T00:52:00,axn,33.74
2024-02-08T00:53:00,axn,33.96
2024-02-08T00:54:00,axn,33.83
2024-02-08T00:55:00,axn,33.85
2024-02-08T00:56:00,axn,34.04
2024-02-08T00:57:00,axn,33.66
2024-02-08T00:58:00,axn,34.61
2024-02-08T00:59:00,axn,34.46
2024-02-08T01:00:00,axn,34.08
2024-02-08T01:01:00,axn,33.91
2024-02-08T01:02:00,axn,33.99
2024-02-08T01:03:00,axn,33.96
2024-02-08T01:04:00,axn,34.10
2024-02-08T01:05:00,axn,33.92
2024-02-08T01:06:00,axn,33.90
2024-02-08T01:07:00,axn,34.03
2024-02-08T01:08:00,axn,34.09
2024-02-08T01:09:00,axn,34.04
2024-02-08T01:10:00,axn,33.85
2024-02-08T01:11:00,axn,33.65
2024-02-08T01:12:00,axn,33.68
2024-02-08T01:13:00,axn,33.49
2024-02-08T01:14:00,axn,33.40
2024-02-08T01:15:00,axn,33.44
2024-02-08T01:16:00,axn,33.90
2024-02-08T01:17:00,axn,33.48
2024-02-08T01:18:00,axn,33.66
2024-02-08T01:19:00,axn,33.52
2024-02-08T01:20:00,axn,33.42
2024-02-08T01:21:00,axn,34.11
2024-02-08T01:22:00,axn,33.35
2024-02-08T01:23:00,axn,33.36
2024-02-08T01:24:00,axn,33.43
2024-02-08T01:25:00,axn,33.30
2024-02-08T01:26:00,axn,33.28
2024-02-08T01:27:00,axn,33.34
2024-02-08T01:28:00,axn,32.87
2024-02-08T01:29:00,axn,32.69
2024-02-08T01:30:00,axn,32.67
2024-02-08T01:31:00,axn,32.46
2024-02-08T01:32:00,axn,35.41
2024-02-08T01:33:00,axn,35.37
2024-02-08T01:34:00,axn,32.53
2024-02-08T01:35:00,axn,32.69
2024-02-08T01:36:00,axn,32.86
2024-02-08T01:37:00,axn,33.01
2024-02-08T01:38:00,axn,33.21
2024-02-08T01:39:00,axn,33.46
2024-02-08T01:40:00,axn,33.59
2024-02-08T01:41:00,axn,34.81
2024-02-08T01:42:00,axn,33.94
2024-02-08T01:43:00,axn,34.32
2024-02-08T01:44:00,axn,34.43
2024-02-08T01:45:00,axn,34.21
2024-02-08T01:46:00,axn,34.44
2024-02-08T01:47:00,axn,34.27
2024-02-08T01:48:00,axn,34.14
2024-02-08T01:49:00,axn,34.03
2024-02-08T01:50:00,axn,34.09
2024-02-08T01:51:00,axn,35.02
2024-02-08T01:52:00,axn,34.95
2024-02-08T01:53:00,axn,34.92
2024-02-08T01:54:00,axn,34.50
2024-02-08T01:55:00,axn,35.23
2024-02-08T01:56:00,axn,35.18
2024-02-08T01:57:00,axn,34.09
2024-02-08T01:58:00,axn,34.29
2024-02-08T01:59:00,axn,34.03
2024-02-08T02:00:00,axn,33.65
2024-02-08T02:01:00,axn,33.88
2024-02-08T02:02:00,axn,33.83
2024-02-08T02:03:00,axn,33.81
2024-02-08T02:04:00,axn,33.94
2024-02-08T02:05:00,axn,34.07
2024-02-08T02:06:00,axn,34.23
2024-02-08T02:07:00,axn,33.90
2024-02-08T02:08:00,axn,33.97
2024-02-08T02:09:00,axn,34.11
2024-02-08T02:10:00,axn,33.79
2024-02-08T02:11:00,axn,33.75
2024-02-08T02:12:00,axn,33.56
2024-02-08T02:13:00,axn,33.63
2024-02-08T02:14:00,axn,33.61
2024-02-08T02:15:00,axn,33.68
2024-02-08T02:16:00,axn,33.81
2024-02-08T02:17:00,axn,33.87
2024-02-08T02:18:00,axn,33.97
2024-02-08T02:19:00,axn,34.31
2024-02-08T02:20:00,axn,33.88
2024-02-08T02:21:00,axn,33.97
2024-02-08T02:22:00,axn,33.73
2024-02-08T02:23:00,axn,33.99
2024-02-08T02:24:00,axn,34.44
2024-02-08T02:25:00,axn,33.90
2024-02-08T02:26:00,axn,33.93
2024-02-08T02:27:00,axn,34.65
2024-02-08T02:28:00,axn,34.26
2024-02-08T02:29:00,axn,34.26
2024-02-08T02:30:00,axn,34.25
2024-02-08T02:31:00,axn,34.48
2024-02-08T02:32:00,axn,34.30
2024-02-08T02:33:00,axn,34.52
2024-02-08T02:34:00,axn,34.59
2024-02-08T02:35:00,axn,34.20
2024-02-08T02:36:00,axn,34.09
2024-02-08T02:37:00,axn,33.90
2024-02-08T02:38:00,axn,34.28
2024-02-08T02:39:00,axn,34.01
2024-02-08T02:40:00,axn,34.16
2024-02-08T02:41:00,axn,34.70
2024-02-08T02:42:00,axn,34.40
2024-02-08T02:43:00,axn,34.27
2024-02-08T02:44:00,axn,34.69
2024-02-08T02:45:00,axn,33.35
2024-02-08T02:46:00,axn,33.42
2024-02-08T02:47:00,axn,32.83
2024-02-08T02:48:00,axn,32.69
2024-02-08T02:49:00,axn,32.82
2024-02-08T02:50:00,axn,32.92
2024-02-08T02:51:00,axn,32.97
2024-02-08T02:52:00,axn,33.75
2024-02-08T02:53:00,axn,32.87
2024-02-08T02:54:00,axn,32.78
2024-02-08T02:55:00,axn,32.77
2024-02-08T02:56:00,axn,32.60
2024-02-08T02:57:00,axn,32.50
2024-02-08T02:58:00,axn,32.41
2024-02-08T02:59:00,axn,32.59
2024-02-08T03:00:00,axn,32.34
2024-02-08T03:01:00,axn,32.27
2024-02-08T03:02:00,axn,32.28
2024-02-08T03:03:00,axn,32.30
2024-02-08T03:04:00,axn,32.45
2024-02-08T03:05:00,axn,32.64
2024-02-08T03:06:00,axn,32.44
2024-02-08T03:07:00,axn,32.46
2024-02-08T03:08:00,axn,32.47
2024-02-08T03:09:00,axn,32.54
2024-02-08T03:10:00,axn,32.77
2024-02-08T03:11:00,axn,32.55
2024-02-08T03:12:00,axn,32.46
2024-02-08T03:13:00,axn,32.62
2024-02-08T03:14:00,axn,32.73
2024-02-08T03:15:00,axn,32.94
2024-02-08T03:16:00,axn,28.44
2024-02-08T03:17:00,axn,28.10
2024-02-08T03:18:00,axn,28.32
2024-02-08T03:19:00,axn,28.33
2024-02-08T03:20:00,axn,28.34
2024-02-08T03:21:00,axn,28.26
2024-02-08T03:22:00,axn,28.29
2024-02-08T03:23:00,axn,28.53
2024-02-08T03:24:00,axn,28.37
2024-02-08T03:25:00,axn,28.29
2024-02-08T03:26:00,axn,28.31
2024-02-08T03:27:00,axn,28.30
2024-02-08T03:28:00,axn,28.29
2024-02-08T03:29:00,axn,27.90
2024-02-08T03:30:00,axn,28.01
2024-02-08T03:31:00,axn,28.05
2024-02-08T03:32:00,axn,27.80
2024-02-08T03:33:00,axn,28.11
2024-02-08T03:34:00,axn,27.99
2024-02-08T03:35:00,axn,27.85
2024-02-08T03:36:00,axn,27.74
2024-02-08T03:37:00,axn,27.50
2024-02-08T03:38:00,axn,27.81
2024-02-08T03:39:00,axn,27.72
2024-02-08T03:40:00,axn,27.79
2024-02-08T03:41:00,axn,27.72
2024-02-08T03:42:00,axn,27.91
2024-02-08T03:43:00,axn,27.93
2024-02-08T03:44:00,axn,27.73
2024-02-08T03:45:00,axn,27.75
2024-02-08T03:46:00,axn,27.80
2024-02-08T03:47:00,axn,27.50
2024-02-08T03:48:00,axn,27.46
2024-02-08T03:49:00,axn,28.23
2024-02-08T03:50:00,axn,27.66
2024-02-08T03:51:00,axn,27.79
2024-02-08T03:52:00,axn,27.64
2024-02-08T03:53:00,axn,28.00
2024-02-08T03:54:00,axn,27.56
2024-02-08T03:55:00,axn,27.37
2024-02-08T03:56:00,axn,27.56
2024-02-08T03:57:00,axn,27.72
2024-02-08T03:58:00,axn,27.61
2024-02-08T03:59:00,axn,28.07
2024-02-08T04:00:00,axn,38.58
2024-02-08T04:01:00,axn,38.49
2024-02-08T04:02:00,axn,38.22
2024-02-08T04:03:00,axn,37.81
2024-02-08T04:04:00,axn,37.86
2024-02-08T04:05:00,axn,27.74
2024-02-08T04:06:00,axn,28.00
2024-02-08T04:07:00,axn,27.59
2024-02-08T04:08:00,axn,27.51
2024-02-08T04:09:00,axn,27.76
2024-02-08T04:10:00,axn,27.73
2024-02-08T04:11:00,axn,27.56
2024-02-08T04:12:00,axn,27.50
2024-02-08T04:13:00,axn,27.15
2024-02-08T04:14:00,axn,27.21
2024-02-08T04:15:00,axn,27.30
2024-02-08T04:16:00,axn,27.34
2024-02-08T04:17:00,axn,43.03
2024-02-08T04:18:00,axn,27.35
2024-02-08T04:19:00,axn,27.45
2024-02-08T04:20:00,axn,27.56
2024-02-08T04:21:00,axn,27.82
2024-02-08T04:22:00,axn,33.09
2024-02-08T04:23:00,axn,33.00
2024-02-08T04:24:00,axn,33.25
2024-02-08T04:25:00,axn,33.33
2024-02-08T04:26:00,axn,33.79
2024-02-08T04:27:00,axn,27.96
2024-02-08T04:28:00,axn,27.91
2024-02-08T04:29:00,axn,27.87
2024-02-08T04:30:00,axn,27.89
2024-02-08T04:31:00,axn,27.72
2024-02-08T04:32:00,axn,27.67
2024-02-08T04:33:00,axn,28.07
2024-02-08T04:34:00,axn,27.62
2024-02-08T04:35:00,axn,27.88
2024-02-08T04:36:00,axn,27.84
2024-02-08T04:37:00,axn,28.09
2024-02-08T04:38:00,axn,27.95
2024-02-08T04:39:00,axn,27.54
2024-02-08T04:40:00,axn,27.74
2024-02-08T04:41:00,axn,28.20
2024-02-08T04:42:00,axn,28.13
2024-02-08T04:43:00,axn,31.07
2024-02-08T04:44:00,axn,29.17
2024-02-08T04:45:00,axn,28.04
2024-02-08T04:46:00,axn,29.03
2024-02-08T04:47:00,axn,29.06
2024-02-08T04:48:00,axn,32.60
2024-02-08T04:49:00,axn,32.45
2024-02-08T04:50:00,axn,32.32
2024-02-08T04:51:00,axn,27.71
2024-02-08T04:52:00,axn,27.58
2024-02-08T04:53:00,axn,27.67
2024-02-08T04:54:00,axn,27.65
2024-02-08T04:55:00,axn,27.79
2024-02-08T04:56:00,axn,27.89
2024-02-08T04:57:00,axn,28.34
2024-02-08T04:58:00,axn,27.84
2024-02-08T04:59:00,axn,27.96
2024-02-08T05:00:00,axn,27.89
2024-02-08T05:01:00,axn,26.47
2024-02-08T05:02:00,axn,26.28
2024-02-08T05:03:00,axn,27.33
2024-02-08T05:04:00,axn,27.53
2024-02-08T05:05:00,axn,27.87
2024-02-08T05:06:00,axn,27.91
2024-02-08T05:07:00,axn,28.60
2024-02-08T05:08:00,axn,28.39
2024-02-08T05:09:00,axn,30.19
2024-02-08T05:10:00,axn,30.51
2024-02-08T05:11:00,axn,29.96
2024-02-08T05:12:00,axn,29.74
2024-02-08T05:13:00,axn,30.00
2024-02-08T05:14:00,axn,29.66
2024-02-08T05:15:00,axn,29.76
2024-02-08T05:16:00,axn,29.87
2024-02-08T05:17:00,axn,29.83
2024-02-08T05:18:00,axn,29.75
2024-02-08T05:19:00,axn,29.48
2024-02-08T05:20:00,axn,29.50
2024-02-08T05:21:00,axn,29.65
2024-02-08T05:22:00,axn,29.71
2024-02-08T05:23:00,axn,29.62
2024-02-08T05:24:00,axn,30.55
2024-02-08T05:25:00,axn,29.77
2024-02-08T05:26:00,axn,29.92
2024-02-08T05:27:00,axn,29.72
2024-02-08T05:28:00,axn,29.79
2024-02-08T05:29:00,axn,29.78
2024-02-08T05:30:00,axn,29.44
2024-02-08T05:31:00,axn,30.07
2024-02-08T05:32:00,axn,29.96
2024-02-08T05:33:00,axn,30.15
2024-02-08T05:34:00,axn,29.75
2024-02-08T05:35:00,axn,30.46
2024-02-08T05:36:00,axn,34.69
2024-02-08T05:37:00,axn,35.25
2024-02-08T05:38:00,axn,35.68
2024-02-08T05:39:00,axn,36.14
2024-02-08T05:40:00,axn,35.26
2024-02-08T05:41:00,axn,36.20
2024-02-08T05:42:00,axn,35.97
2024-02-08T05:43:00,axn,36.17
2024-02-08T05:44:00,axn,36.44
2024-02-08T05:45:00,axn,36.39
2024-02-08T05:46:00,axn,35.81
2024-02-08T05:47:00,axn,36.23
2024-02-08T05:48:00,axn,36.94
2024-02-08T05:49:00,axn,35.55
2024-02-08T05:50:00,axn,35.37
2024-02-08T05:51:00,axn,35.51
2024-02-08T05:52:00,axn,35.26
2024-02-08T05:53:00,axn,37.41
2024-02-08T05:54:00,axn,36.16
2024-02-08T05:55:00,axn,52.18
2024-02-08T05:56:00,axn,50.70
2024-02-08T05:57:00,axn,50.73
2024-02-08T05:58:00,axn,50.49
2024-02-08T05:59:00,axn,50.37
2024-02-08T06:00:00,axn,50.12
2024-02-08T06:01:00,axn,37.28
2024-02-08T06:02:00,axn,36.80
2024-02-08T06:03:00,axn,36.03
2024-02-08T06:04:00,axn,36.78
2024-02-08T06:05:00,axn,36.99
2024-02-08T06:06:00,axn,37.49
2024-02-08T06:07:00,axn,36.30
2024-02-08T06:08:00,axn,35.22
2024-02-08T06:09:00,axn,34.84
2024-02-08T06:10:00,axn,34.94
2024-02-08T06:11:00,axn,34.59
2024-02-08T06:12:00,axn,35.09
2024-02-08T06:13:00,axn,33.94
2024-02-08T06:14:00,axn,33.92
2024-02-08T06:15:00,axn,34.48
2024-02-08T06:16:00,axn,34.18
2024-02-08T06:17:00,axn,33.86
2024-02-08T06:18:00,axn,33.77
2024-02-08T06:19:00,axn,34.96
2024-02-08T06:20:00,axn,33.53
2024-02-08T06:21:00,axn,33.71
2024-02-08T06:22:00,axn,33.71
2024-02-08T06:23:00,axn,33.44
2024-02-08T06:24:00,axn,33.76
2024-02-08T06:25:00,axn,34.13
2024-02-08T06:26:00,axn,33.63
2024-02-08T06:27:00,axn,34.88
2024-02-08T06:28:00,axn,33.73
2024-02-08T06:29:00,axn,33.72
2024-02-08T06:30:00,axn,34.06
2024-02-08T06:31:00,axn,35.27
2024-02-08T06:32:00,axn,50.11
2024-02-08T06:33:00,axn,33.30
2024-02-08T06:34:00,axn,33.58
2024-02-08T06:35:00,axn,33.60
2024-02-08T06:36:00,axn,34.21
2024-02-08T06:37:00,axn,33.62
2024-02-08T06:38:00,axn,33.74
2024-02-08T06:39:00,axn,33.68
2024-02-08T06:40:00,axn,33.46
2024-02-08T06:41:00,axn,33.51
2024-02-08T06:42:00,axn,33.58
2024-02-08T06:43:00,axn,33.68
2024-02-08T06:44:00,axn,33.54
2024-02-08T06:45:00,axn,33.14
2024-02-08T06:46:00,axn,33.23
2024-02-08T06:47:00,axn,32.84
2024-02-08T06:48:00,axn,32.48
2024-02-08T06:49:00,axn,32.40
2024-02-08T06:50:00,axn,32.23
2024-02-08T06:51:00,axn,32.64
2024-02-08T06:52:00,axn,33.25
2024-02-08T06:53:00,axn,33.18
2024-02-08T06:54:00,axn,32.42
2024-02-08T06:55:00,axn,32.44
2024-02-08T06:56:00,axn,32.26
2024-02-08T06:57:00,axn,31.97
2024-02-08T06:58:00,axn,31.73
2024-02-08T06:59:00,axn,31.64
2024-02-08T07:00:00,axn,31.77
2024-02-08T07:01:00,axn,32.25
2024-02-08T07:02:00,axn,33.61
2024-02-08T07:03:00,axn,32.80
2024-02-08T07:04:00,axn,33.29
2024-02-08T07:05:00,axn,33.32
2024-02-08T07:06:00,axn,33.40
2024-02-08T07:07:00,axn,32.94
2024-02-08T07:08:00,axn,33.12
2024-02-08T07:09:00,axn,33.37
2024-02-08T07:10:00,axn,33.29
2024-02-08T07:11:00,axn,33.67
2024-02-08T07:12:00,axn,33.63
2024-02-08T07:13:00,axn,33.86
2024-02-08T07:14:00,axn,33.78
2024-02-08T07:15:00,axn,33.53
2024-02-08T07:16:00,axn,34.04
2024-02-08T07:17:00,axn,34.63
2024-02-08T07:18:00,axn,37.10
2024-02-08T07:19:00,axn,37.32
2024-02-08T07:20:00,axn,38.63
2024-02-08T07:21:00,axn,38.41
2024-02-08T07:22:00,axn,38.46
2024-02-08T07:23:00,axn,38.91
2024-02-08T07:24:00,axn,38.32
2024-02-08T07:25:00,axn,39.28
2024-02-08T07:26:00,axn,38.86
2024-02-08T07:27:00,axn,39.24
2024-02-08T07:28:00,axn,38.41
2024-02-08T07:29:00,axn,38.44
2024-02-08T07:30:00,axn,38.99
2024-02-08T07:31:00,axn,40.17
2024-02-08T07:32:00,axn,38.66
2024-02-08T07:33:00,axn,38.77
2024-02-08T07:34:00,axn,39.55
2024-02-08T07:35:00,axn,41.99
2024-02-08T07:36:00,axn,39.75
2024-02-08T07:37:00,axn,39.82
2024-02-08T07:38:00,axn,50.47
2024-02-08T07:39:00,axn,39.62
2024-02-08T07:40:00,axn,39.60
2024-02-08T07:41:00,axn,39.79
2024-02-08T07:42:00,axn,40.31
2024-02-08T07:43:00,axn,39.81
2024-02-08T07:44:00,axn,39.64
2024-02-08T07:45:00,axn,39.36
2024-02-08T07:46:00,axn,41.21
2024-02-08T07:47:00,axn,40.47
2024-02-08T07:48:00,axn,39.96
2024-02-08T07:49:00,axn,39.89
2024-02-08T07:50:00,axn,39.95
2024-02-08T07:51:00,axn,44.72
2024-02-08T07:52:00,axn,41.41
2024-02-08T07:53:00,axn,40.63
2024-02-08T07:54:00,axn,40.61
2024-02-08T07:55:00,axn,40.42
2024-02-08T07:56:00,axn,40.63
2024-02-08T07:57:00,axn,40.35
2024-02-08T07:58:00,axn,40.86
2024-02-08T07:59:00,axn,40.00
2024-02-08T08:00:00,axn,40.01
2024-02-08T08:01:00,axn,41.60
2024-02-08T08:02:00,axn,42.39
2024-02-08T08:03:00,axn,41.73
2024-02-08T08:04:00,axn,41.87
2024-02-08T08:05:00,axn,41.45
2024-02-08T08:06:00,axn,43.15
2024-02-08T08:07:00,axn,42.02
2024-02-08T08:08:00,axn,42.24
2024-02-08T08:09:00,axn,42.26
2024-02-08T08:10:00,axn,42.62
2024-02-08T08:11:00,axn,42.80
2024-02-08T08:12:00,axn,43.05
2024-02-08T08:13:00,axn,42.92
2024-02-08T08:14:00,axn,43.56
2024-02-08T08:15:00,axn,53.30
2024-02-08T08:16:00,axn,52.48
2024-02-08T08:17:00,axn,52.44
2024-02-08T08:18:00,axn,52.40
2024-02-08T08:19:00,axn,42.41
2024-02-08T08:20:00,axn,42.60
2024-02-08T08:21:00,axn,42.70
2024-02-08T08:22:00,axn,42.88
2024-02-08T08:23:00,axn,42.74
2024-02-08T08:24:00,axn,42.74
2024-02-08T08:25:00,axn,42.84
2024-02-08T08:26:00,axn,42.42
2024-02-08T08:27:00,axn,42.75
2024-02-08T08:28:00,axn,41.82
2024-02-08T08:29:00,axn,41.47
2024-02-08T08:30:00,axn,42.57
2024-02-08T08:31:00,axn,43.29
2024-02-08T08:32:00,axn,41.51
2024-02-08T08:33:00,axn,41.35
2024-02-08T08:34:00,axn,41.29
2024-02-08T08:35:00,axn,41.39
2024-02-08T08:36:00,axn,41.35
2024-02-08T08:37:00,axn,41.60
2024-02-08T08:38:00,axn,41.29
2024-02-08T08:39:00,axn,41.18
2024-02-08T08:40:00,axn,41.50
2024-02-08T08:41:00,axn,41.56
2024-02-08T08:42:00,axn,41.47
2024-02-08T08:43:00,axn,41.36
2024-02-08T08:44:00,axn,41.61
2024-02-08T08:45:00,axn,41.54
2024-02-08T08:46:00,axn,42.04
2024-02-08T08:47:00,axn,41.55
2024-02-08T08:48:00,axn,41.54
2024-02-08T08:49:00,axn,41.50
2024-02-08T08:50:00,axn,41.70
2024-02-08T08:51:00,axn,41.64
2024-02-08T08:52:00,axn,41.70
2024-02-08T08:53:00,axn,42.02
2024-02-08T08:54:00,axn,42.13
2024-02-08T08:55:00,axn,42.11
2024-02-08T08:56:00,axn,41.70
2024-02-08T08:57:00,axn,41.70
2024-02-08T08:58:00,axn,41.52
2024-02-08T08:59:00,axn,41.85
2024-02-08T09:00:00,axn,42.62
2024-02-08T09:01:00,axn,42.22
2024-02-08T09:02:00,axn,41.93
2024-02-08T09:03:00,axn,42.28
2024-02-08T09:04:00,axn,41.64
2024-02-08T09:05:00,axn,41.64
2024-02-08T09:06:00,axn,42.02
2024-02-08T09:07:00,axn,41.98
2024-02-08T09:08:00,axn,41.98
2024-02-08T09:09:00,axn,41.81
2024-02-08T09:10:00,axn,41.64
2024-02-08T09:11:00,axn,41.50
2024-02-08T09:12:00,axn,41.39
2024-02-08T09:13:00,axn,41.44
2024-02-08T09:14:00,axn,41.55
2024-02-08T09:15:00,axn,41.60
2024-02-08T09:16:00,axn,41.22
2024-02-08T09:17:00,axn,40.44
2024-02-08T09:18:00,axn,40.58
2024-02-08T09:19:00,axn,40.46
2024-02-08T09:20:00,axn,41.22
2024-02-08T09:21:00,axn,40.24
2024-02-08T09:22:00,axn,40.80
2024-02-08T09:23:00,axn,40.08
2024-02-08T09:24:00,axn,40.45
2024-02-08T09:25:00,axn,40.38
2024-02-08T09:26:00,axn,40.34
2024-02-08T09:27:00,axn,40.35
2024-02-08T09:28:00,axn,40.18
2024-02-08T09:29:00,axn,40.82
2024-02-08T09:30:00,axn,40.60
2024-02-08T09:31:00,axn,40.65
2024-02-08T09:32:00,axn,40.94
2024-02-08T09:33:00,axn,40.44
2024-02-08T09:34:00,axn,40.61
2024-02-08T09:35:00,axn,41.36
2024-02-08T09:36:00,axn,40.68
2024-02-08T09:37:00,axn,40.30
2024-02-08T09:38:00,axn,40.31
2024-02-08T09:39:00,axn,41.49
2024-02-08T09:40:00,axn,40.29
2024-02-08T09:41:00,axn,40.92
2024-02-08T09:42:00,axn,40.25
2024-02-08T09:43:00,axn,40.16
2024-02-08T09:44:00,axn,39.95
2024-02-08T09:45:00,axn,41.08
2024-02-08T09:46:00,axn,41.06
2024-02-08T09:47:00,axn,41.36
2024-02-08T09:48:00,axn,41.08
2024-02-08T09:49:00,axn,40.85
2024-02-08T09:50:00,axn,41.16
2024-02-08T09:51:00,axn,41.33
2024-02-08T09:52:00,axn,41.70
2024-02-08T09:53:00,axn,41.32
2024-02-08T09:54:00,axn,41.35
2024-02-08T09:55:00,axn,41.48
2024-02-08T09:56:00,axn,42.17
2024-02-08T09:57:00,axn,41.99
2024-02-08T09:58:00,axn,42.06
2024-02-08T09:59:00,axn,43.16
2024-02-08T10:00:00,axn,42.38
2024-02-08T10:01:00,axn,42.24
2024-02-08T10:02:00,axn,42.36
2024-02-08T10:03:00,axn,42.24
2024-02-08T10:04:00,axn,43.31
2024-02-08T10:05:00,axn,42.18
2024-02-08T10:06:00,axn,42.64
2024-02-08T10:07:00,axn,42.27
2024-02-08T10:08:00,axn,41.43
2024-02-08T10:09:00,axn,41.15
2024-02-08T10:10:00,axn,40.95
2024-02-08T10:11:00,axn,40.87
2024-02-08T10:12:00,axn,41.16
2024-02-08T10:13:00,axn,41.42
2024-02-08T10:14:00,axn,60.50
2024-02-08T10:15:00,axn,43.43
2024-02-08T10:16:00,axn,56.49
2024-02-08T10:17:00,axn,56.11
2024-02-08T10:18:00,axn,55.18
2024-02-08T10:19:00,axn,55.33
2024-02-08T10:20:00,axn,55.62
2024-02-08T10:21:00,axn,55.20
2024-02-08T10:22:00,axn,40.92
2024-02-08T10:23:00,axn,41.68
2024-02-08T10:24:00,axn,41.22
2024-02-08T10:25:00,axn,41.04
2024-02-08T10:26:00,axn,40.86
2024-02-08T10:27:00,axn,41.01
2024-02-08T10:28:00,axn,40.59
2024-02-08T10:29:00,axn,41.92
2024-02-08T10:30:00,axn,40.89
2024-02-08T10:31:00,axn,41.06
2024-02-08T10:32:00,axn,40.95
2024-02-08T10:33:00,axn,40.58
2024-02-08T10:34:00,axn,40.88
2024-02-08T10:35:00,axn,40.81
2024-02-08T10:36:00,axn,41.20
2024-02-08T10:37:00,axn,40.83
2024-02-08T10:38:00,axn,40.59
2024-02-08T10:39:00,axn,40.79
2024-02-08T10:40:00,axn,46.71
2024-02-08T10:41:00,axn,46.66
2024-02-08T10:42:00,axn,46.91
2024-02-08T10:43:00,axn,41.14
2024-02-08T10:44:00,axn,41.01
2024-02-08T10:45:00,axn,40.92
2024-02-08T10:46:00,axn,40.80
2024-02-08T10:47:00,axn,40.99
2024-02-08T10:48:00,axn,43.89
2024-02-08T10:49:00,axn,44.98
2024-02-08T10:50:00,axn,41.35
2024-02-08T10:51:00,axn,41.30
2024-02-08T10:52:00,axn,41.88
2024-02-08T10:53:00,axn,41.02
2024-02-08T10:54:00,axn,41.27
2024-02-08T10:55:00,axn,41.24
2024-02-08T10:56:00,axn,40.64
2024-02-08T10:57:00,axn,41.38
2024-02-08T10:58:00,axn,41.35
2024-02-08T10:59:00,axn,41.21
2024-02-08T11:00:00,axn,40.92
2024-02-08T11:01:00,axn,41.14
2024-02-08T11:02:00,axn,41.30
2024-02-08T11:03:00,axn,41.17
2024-02-08T11:04:00,axn,41.20
2024-02-08T11:05:00,axn,40.98
2024-02-08T11:06:00,axn,41.11
2024-02-08T11:07:00,axn,41.30
2024-02-08T11:08:00,axn,40.93
2024-02-08T11:09:00,axn,40.79
2024-02-08T11:10:00,axn,41.21
2024-02-08T11:11:00,axn,41.20
2024-02-08T11:12:00,axn,41.08
2024-02-08T11:13:00,axn,41.25
2024-02-08T11:14:00,axn,41.44
2024-02-08T11:15:00,axn,41.33
2024-02-08T11:16:00,axn,41.10
2024-02-08T11:17:00,axn,41.18
2024-02-08T11:18:00,axn,41.84
2024-02-08T11:19:00,axn,41.22
2024-02-08T11:20:00,axn,41.22
2024-02-08T11:21:00,axn,41.15
2024-02-08T11:22:00,axn,41.25
2024-02-08T11:23:00,axn,41.41
2024-02-08T11:24:00,axn,41.21
2024-02-08T11:25:00,axn,40.82
2024-02-08T11:26:00,axn,40.63
2024-02-08T11:27:00,axn,40.44
2024-02-08T11:28:00,axn,40.79
2024-02-08T11:29:00,axn,40.61
2024-02-08T11:30:00,axn,40.74
2024-02-08T11:31:00,axn,40.61
2024-02-08T11:32:00,axn,40.56
2024-02-08T11:33:00,axn,40.79
2024-02-08T11:34:00,axn,40.26
2024-02-08T11:35:00,axn,40.56
2024-02-08T11:36:00,axn,40.44
2024-02-08T11:37:00,axn,40.19
2024-02-08T11:38:00,axn,40.26
2024-02-08T11:39:00,axn,40.23
2024-02-08T11:40:00,axn,40.40
2024-02-08T11:41:00,axn,40.27
2024-02-08T11:42:00,axn,41.22
2024-02-08T11:43:00,axn,40.43
2024-02-08T11:44:00,axn,40.97
2024-02-08T11:45:00,axn,40.60
2024-02-08T11:46:00,axn,40.74
2024-02-08T11:47:00,axn,40.98
2024-02-08T11:48:00,axn,41.23
2024-02-08T11:49:00,axn,40.82
2024-02-08T11:50:00,axn,40.83
2024-02-08T11:51:00,axn,40.68
2024-02-08T11:52:00,axn,40.87
2024-02-08T11:53:00,axn,41.02
2024-02-08T11:54:00,axn,40.99
2024-02-08T11:55:00,axn,41.17
2024-02-08T11:56:00,axn,41.22
2024-02-08T11:57:00,axn,41.18
2024-02-08T11:58:00,axn,41.14
2024-02-08T11:59:00,axn,41.34
2024-02-08T12:00:00,axn,41.95
2024-02-08T12:01:00,axn,41.59
2024-02-08T12:02:00,axn,41.47
2024-02-08T12:03:00,axn,52.45
2024-02-08T12:04:00,axn,52.80
2024-02-08T12:05:00,axn,52.71
2024-02-08T12:06:00,axn,52.65
2024-02-08T12:07:00,axn,52.43
2024-02-08T12:08:00,axn,42.48
2024-02-08T12:09:00,axn,42.46
2024-02-08T12:10:00,axn,42.61
2024-02-08T12:11:00,axn,42.29
2024-02-08T12:12:00,axn,42.26
2024-02-08T12:13:00,axn,42.36
2024-02-08T12:14:00,axn,42.49
2024-02-08T12:15:00,axn,42.42
2024-02-08T12:16:00,axn,42.37
2024-02-08T12:17:00,axn,42.56
2024-02-08T12:18:00,axn,42.78
2024-02-08T12:19:00,axn,42.78
2024-02-08T12:20:00,axn,43.29
2024-02-08T12:21:00,axn,43.28
2024-02-08T12:22:00,axn,43.80
2024-02-08T12:23:00,axn,43.69
2024-02-08T12:24:00,axn,43.23
2024-02-08T12:25:00,axn,42.30
2024-02-08T12:26:00,axn,41.96
2024-02-08T12:27:00,axn,41.92
2024-02-08T12:28:00,axn,58.93
2024-02-08T12:29:00,axn,42.64
2024-02-08T12:30:00,axn,42.83
2024-02-08T12:31:00,axn,42.13
2024-02-08T12:32:00,axn,42.22
2024-02-08T12:33:00,axn,42.32
2024-02-08T12:34:00,axn,42.15
2024-02-08T12:35:00,axn,41.90
2024-02-08T12:36:00,axn,42.33
2024-02-08T12:37:00,axn,42.22
2024-02-08T12:38:00,axn,41.81
2024-02-08T12:39:00,axn,41.94
2024-02-08T12:40:00,axn,41.84
2024-02-08T12:41:00,axn,46.27
2024-02-08T12:42:00,axn,46.49
2024-02-08T12:43:00,axn,41.67
2024-02-08T12:44:00,axn,41.88
2024-02-08T12:45:00,axn,41.89
2024-02-08T12:46:00,axn,41.73
2024-02-08T12:47:00,axn,41.78
2024-02-08T12:48:00,axn,41.95
2024-02-08T12:49:00,axn,42.02
2024-02-08T12:50:00,axn,41.81
2024-02-08T12:51:00,axn,41.64
2024-02-08T12:52:00,axn,42.06
2024-02-08T12:53:00,axn,41.76
2024-02-08T12:54:00,axn,41.78
2024-02-08T12:55:00,axn,42.35
2024-02-08T12:56:00,axn,41.93
2024-02-08T12:57:00,axn,41.94
2024-02-08T12:58:00,axn,42.01
2024-02-08T12:59:00,axn,41.89
2024-02-08T13:00:00,axn,42.26
2024-02-08T13:01:00,axn,41.85
2024-02-08T13:02:00,axn,41.85
2024-02-08T13:03:00,axn,42.39
2024-02-08T13:04:00,axn,42.31
2024-02-08T13:05:00,axn,41.85
2024-02-08T13:06:00,axn,41.97
2024-02-08T13:07:00,axn,42.05
2024-02-08T13:08:00,axn,41.86
2024-02-08T13:09:00,axn,41.84
2024-02-08T13:10:00,axn,42.05
2024-02-08T13:11:00,axn,41.76
2024-02-08T13:12:00,axn,42.03
2024-02-08T13:13:00,axn,41.69
2024-02-08T13:14:00,axn,41.66
2024-02-08T13:15:00,axn,41.57
2024-02-08T13:16:00,axn,46.16
2024-02-08T13:17:00,axn,56.02
2024-02-08T13:18:00,axn,55.81